Previsão horária em Almata

Hoje, 16 Junho, Quarta-feira

Tempo Temperatura Precipitação Vento Pressão Humidade
00:00 +18°C° 0 mm 2 m/s 685 mmHg 46%
01:00 +18°C° 0 mm 2 m/s 685 mmHg 45%
02:00 +17°C° 0 mm 2 m/s 685 mmHg 44%
03:00 +17°C° 0 mm 2 m/s 685 mmHg 45%
04:00 +17°C° 0 mm 2 m/s 686 mmHg 46%
05:00 +17°C° 0 mm 2 m/s 686 mmHg 46%
06:00 +19°C° 0 mm 2 m/s 686 mmHg 44%
07:00 +21°C° 0 mm 2 m/s 686 mmHg 42%
08:00 +23°C° 0 mm 2 m/s 687 mmHg 39%
09:00 +24°C° 0 mm 1 m/s 687 mmHg 39%
10:00 +25°C° 0 mm 1 m/s 687 mmHg 38%
11:00 +26°C° 0 mm 1 m/s 687 mmHg 37%
12:00 +26°C° 0.4 mm 1 m/s 687 mmHg 40%
13:00 +26°C° 0.4 mm 2 m/s 687 mmHg 43%
14:00 +25°C° 0.4 mm 2 m/s 687 mmHg 45%
15:00 +25°C° 0.5 mm 2 m/s 687 mmHg 47%
16:00 +25°C° 0.5 mm 2 m/s 687 mmHg 48%
17:00 +24°C° 0.5 mm 2 m/s 686 mmHg 50%
18:00 +22°C° 0.3 mm 3 m/s 686 mmHg 51%
19:00 +21°C° 0.3 mm 3 m/s 687 mmHg 52%
20:00 +21°C° 0.3 mm 3 m/s 687 mmHg 54%
21:00 +20°C° 0.1 mm 3 m/s 687 mmHg 53%
22:00 +20°C° 0.1 mm 3 m/s 686 mmHg 52%
23:00 +20°C° 0.1 mm 3 m/s 686 mmHg 51%

Amanhã, 17 Junho, Quinta-feira

Tempo Temperatura Precipitação Vento Pressão Humidade
00:00 +20°C° 0 mm 2 m/s 686 mmHg 51%
01:00 +20°C° 0 mm 2 m/s 686 mmHg 50%
02:00 +19°C° 0 mm 2 m/s 686 mmHg 50%
03:00 +19°C° 0 mm 2 m/s 686 mmHg 50%
04:00 +19°C° 0 mm 3 m/s 686 mmHg 51%
05:00 +19°C° 0 mm 3 m/s 686 mmHg 51%
06:00 +20°C° 0 mm 2 m/s 686 mmHg 48%
07:00 +23°C° 0 mm 2 m/s 686 mmHg 45%
08:00 +25°C° 0 mm 2 m/s 687 mmHg 41%
09:00 +26°C° 0.1 mm 1 m/s 687 mmHg 40%
10:00 +27°C° 0.1 mm 1 m/s 687 mmHg 38%
11:00 +28°C° 0.1 mm 1 m/s 686 mmHg 37%
12:00 +28°C° 0.2 mm 1 m/s 686 mmHg 37%
13:00 +29°C° 0.2 mm 1 m/s 686 mmHg 37%
14:00 +29°C° 0.2 mm 1 m/s 686 mmHg 37%
15:00 +29°C° 0.2 mm 1 m/s 686 mmHg 37%
16:00 +29°C° 0.2 mm 1 m/s 685 mmHg 37%
17:00 +29°C° 0.2 mm 2 m/s 685 mmHg 37%
18:00 +27°C° 0.1 mm 2 m/s 686 mmHg 40%
19:00 +25°C° 0.1 mm 2 m/s 686 mmHg 43%
20:00 +24°C° 0.1 mm 2 m/s 686 mmHg 45%
21:00 +22°C° 0 mm 3 m/s 686 mmHg 46%
22:00 +21°C° 0 mm 3 m/s 686 mmHg 47%
23:00 +21°C° 0 mm 3 m/s 686 mmHg 47%

Depois de amanhã, 18 Junho, Sexta-feira

Tempo Temperatura Precipitação Vento Pressão Humidade
00:00 +20°C° 0 mm 3 m/s 685 mmHg 48%
01:00 +20°C° 0 mm 3 m/s 685 mmHg 48%
02:00 +20°C° 0 mm 3 m/s 685 mmHg 48%
03:00 +20°C° 0 mm 3 m/s 685 mmHg 49%
04:00 +20°C° 0 mm 3 m/s 685 mmHg 50%
05:00 +19°C° 0 mm 3 m/s 685 mmHg 51%
06:00 +21°C° 0.1 mm 2 m/s 686 mmHg 47%
07:00 +24°C° 0.1 mm 2 m/s 686 mmHg 43%
08:00 +26°C° 0.1 mm 2 m/s 686 mmHg 40%
09:00 +27°C° 0.2 mm 2 m/s 686 mmHg 38%
10:00 +28°C° 0.2 mm 2 m/s 686 mmHg 37%
11:00 +29°C° 0.2 mm 1 m/s 686 mmHg 35%
12:00 +30°C° 0.4 mm 2 m/s 686 mmHg 34%
13:00 +30°C° 0.4 mm 2 m/s 685 mmHg 33%
14:00 +31°C° 0.4 mm 2 m/s 685 mmHg 32%
15:00 +31°C° 0.1 mm 2 m/s 685 mmHg 30%
16:00 +31°C° 0.1 mm 2 m/s 685 mmHg 29%
17:00 +31°C° 0.1 mm 2 m/s 685 mmHg 27%
18:00 +28°C° 0 mm 2 m/s 685 mmHg 30%
19:00 +26°C° 0 mm 2 m/s 685 mmHg 32%
20:00 +24°C° 0 mm 3 m/s 685 mmHg 35%
21:00 +22°C° 0 mm 3 m/s 685 mmHg 35%
22:00 +22°C° 0 mm 3 m/s 685 mmHg 35%
23:00 +21°C° 0 mm 3 m/s 685 mmHg 34%

19 Junho, Sábado

Tempo Temperatura Precipitação Vento Pressão Humidade
00:00 +21°C° 0 mm 3 m/s 685 mmHg 34%
01:00 +21°C° 0 mm 3 m/s 684 mmHg 34%
02:00 +21°C° 0 mm 3 m/s 684 mmHg 34%
03:00 +21°C° 0 mm 3 m/s 684 mmHg 34%
04:00 +20°C° 0 mm 3 m/s 684 mmHg 34%
05:00 +20°C° 0 mm 3 m/s 684 mmHg 34%
06:00 +24°C° 0 mm 2 m/s 684 mmHg 31%
07:00 +26°C° 0 mm 2 m/s 684 mmHg 27%
08:00 +29°C° 0 mm 1 m/s 684 mmHg 23%
09:00 +30°C° 0 mm 2 m/s 684 mmHg 22%
10:00 +31°C° 0 mm 2 m/s 684 mmHg 21%
11:00 +34°C° 0 mm 2 m/s 684 mmHg 20%
12:00 +30°C° 0.3 mm 4 m/s 684 mmHg 30%
13:00 +27°C° 0.3 mm 5 m/s 683 mmHg 40%
14:00 +24°C° 0.3 mm 6 m/s 683 mmHg 50%
15:00 +24°C° 0.3 mm 6 m/s 683 mmHg 51%
16:00 +23°C° 0.3 mm 5 m/s 683 mmHg 52%
17:00 +23°C° 0.3 mm 5 m/s 684 mmHg 52%
18:00 +22°C° 0.1 mm 4 m/s 684 mmHg 58%
19:00 +21°C° 0.1 mm 4 m/s 685 mmHg 63%
20:00 +19°C° 0.1 mm 4 m/s 685 mmHg 68%
21:00 +19°C° 0.1 mm 3 m/s 685 mmHg 70%
22:00 +19°C° 0.1 mm 2 m/s 685 mmHg 73%
23:00 +20°C° 0.1 mm 1 m/s 685 mmHg 75%

20 Junho, Domingo

Tempo Temperatura Precipitação Vento Pressão Humidade
00:00 +19°C° 0 mm 1 m/s 685 mmHg 79%
01:00 +17°C° 0 mm 2 m/s 684 mmHg 83%
02:00 +17°C° 0 mm 2 m/s 684 mmHg 87%
03:00 +16°C° 0.1 mm 2 m/s 684 mmHg 86%
04:00 +16°C° 0.1 mm 2 m/s 684 mmHg 85%
05:00 +16°C° 0.1 mm 2 m/s 685 mmHg 83%
06:00 +16°C° 0.1 mm 2 m/s 685 mmHg 79%
07:00 +16°C° 0.1 mm 2 m/s 685 mmHg 74%
08:00 +16°C° 0.1 mm 1 m/s 685 mmHg 70%
09:00 +16°C° 0.2 mm 1 m/s 685 mmHg 67%
10:00 +17°C° 0.2 mm 2 m/s 685 mmHg 64%
11:00 +17°C° 0.2 mm 2 m/s 685 mmHg 61%
12:00 +17°C° 0.7 mm 2 m/s 685 mmHg 64%
13:00 +16°C° 0.7 mm 1 m/s 685 mmHg 66%
14:00 +16°C° 0.7 mm 1 m/s 684 mmHg 68%
15:00 +15°C° 2.7 mm 2 m/s 685 mmHg 74%
16:00 +15°C° 2.7 mm 2 m/s 685 mmHg 81%
17:00 +14°C° 2.7 mm 2 m/s 686 mmHg 88%
18:00 +14°C° 0.5 mm 2 m/s 686 mmHg 85%
19:00 +14°C° 0.5 mm 2 m/s 686 mmHg 83%
20:00 +14°C° 0.5 mm 2 m/s 686 mmHg 81%
21:00 +14°C° 0.2 mm 2 m/s 686 mmHg 80%
22:00 +14°C° 0.2 mm 2 m/s 686 mmHg 80%
23:00 +14°C° 0.2 mm 2 m/s 686 mmHg 79%

21 Junho, Segunda-feira

Tempo Temperatura Precipitação Vento Pressão Humidade
00:00 +13°C° 0.5 mm 2 m/s 686 mmHg 78%
01:00 +12°C° 0.5 mm 3 m/s 685 mmHg 76%
02:00 +12°C° 0.5 mm 3 m/s 685 mmHg 75%
03:00 +12°C° 0 mm 3 m/s 685 mmHg 73%
04:00 +12°C° 0 mm 3 m/s 685 mmHg 71%
05:00 +12°C° 0 mm 3 m/s 686 mmHg 69%
06:00 +15°C° 0 mm 2 m/s 686 mmHg 63%
07:00 +17°C° 0 mm 2 m/s 687 mmHg 58%
08:00 +19°C° 0 mm 1 m/s 687 mmHg 52%
09:00 +19°C° 0 mm 2 m/s 687 mmHg 50%
10:00 +20°C° 0 mm 3 m/s 688 mmHg 48%
11:00 +21°C° 0 mm 3 m/s 688 mmHg 46%
12:00 +22°C° 0 mm 3 m/s 688 mmHg 45%
13:00 +24°C° 0 mm 3 m/s 688 mmHg 44%
14:00 +24°C° 0 mm 3 m/s 688 mmHg 44%
15:00 +24°C° 0 mm 3 m/s 688 mmHg 44%
16:00 +24°C° 0 mm 3 m/s 688 mmHg 44%
17:00 +24°C° 0 mm 2 m/s 688 mmHg 44%
18:00 +21°C° 0 mm 2 m/s 688 mmHg 47%
19:00 +20°C° 0 mm 2 m/s 689 mmHg 50%
20:00 +19°C° 0 mm 2 m/s 689 mmHg 52%
21:00 +18°C° 0 mm 2 m/s 689 mmHg 52%
22:00 +17°C° 0 mm 2 m/s 689 mmHg 53%
23:00 +17°C° 0 mm 2 m/s 689 mmHg 53%
Mostrar mais